Torna al catalogo

STARLINK-35949

AttivoComunicazioniVLEO
NORAD 66630·PAYLOAD·🇺🇸 United States

Lanciato Nov 23, 2025 da Vandenberg Space Force Base

Loading…

Prossimi Passaggi (prossime 24 ore)

TLE

AggiornatoSource: CelesTrak SupGP

Epoca: Sep 14, 2026, 21:06 UTC

1 66630C 25271P   26257.87965278 -.00014232  00000+0 -42056-3 0  2572
2 66630  53.1597 336.1154 0001281  75.5814 285.8063 15.34392369    16

Traccia STARLINK-35949 in tempo reale con AllMySat

Download on the App Store